Location: Coupvray
(48.8929°N, 2.7967°E)
Time: 22:34:36
(UTC+00:00)

X-37B - Pass Details

Date: 05 October 2020
Orbit: 382 x 392 km, 45.0° (Epoch: 15 October)

Event Time Altitude Azimuth Distance (km) Brightness Sun altitude
Rises 17:48:58 0° 215° (SW) 2,259 5.0 -5.8°
Reaches altitude 10° 17:51:35 10° 192° (SSW) 1,406 3.6 -6.2°
Maximum altitude 17:53:35 16° 153° (SSE) 1,120 2.7 -6.6°
Drops below altitude 10° 17:55:34 10° 114° (ESE) 1,407 2.8 -6.9°
Enters shadow 17:56:01 - 108° (ESE) 1,531 3.0 -7.0°
